sat.trackr.live / text

‹ back to catalog

STARLINK-36911

NORAD 68008 · 2026-039Y

PAYLOAD ACTIVE UNKNOWN

§ Identity

Operator
Country
US
Launch date
2026-02-27
Launch site
AFETR
Launch vehicle
Mass (kg)
RCS (m²)

Purposes: comms

External: N2YO · Heavens-Above · Gunter

§ Orbital elements

Epoch: 2026-09-20T02:03:38.004192Z

Period
94.27 min
Inclination
43.0031°
Eccentricity
0.0002491
Mean motion
15.27582322 rev/d
Perigee alt
481.3 km
Apogee alt
484.8 km
Semi-major
6,861.2 km
B*
5.4363e-4
RAAN
31.0910°
Arg perigee
272.0370°
Mean anomaly
88.0196°
Rev number
3,143

§ Raw data

STARLINK-369111 68008U 26039Y   26263.08585653  .00014729  00000+0  54363-3 0  99972 68008  43.0031  31.0910 0002491 272.0370  88.0196 15.27582322 31436

JSON: /api/v1/satellites/68008 · /tle

For live sub-satellite position, see the globe view (requires WebGL).

§ Visibility from observer

Set your observer location to see the next 7 days of passes ≥ 10°. The values pass through the URL so the page stays shareable.

No JS? Fill the form by hand. The geolocation button needs JavaScript.